NOAA 16 DEB

Satellite information

Favourite Embed

Satellite Type and Status

DEBRISIN ORBIT

Key statistics

Satellite NOAA 16 DEB at a glance.

Uptime

9000

Days in orbit

Revolutions

≈ 14.3

Per day

Orbit

SSO

Sun Synchronous Orbit

Inclination

98.7

Latest

Satellite identification and parameters

Extended collection of information and parameters for NOAA 16 DEB.

Object identification

Identified? True

Debris? True

Object name: NOAA 16 DEB

International designator: 2000-055KM

Object number (NORAD): 41408

Object ID (CCSDS): 41408

Country: UNITED STATES OF AMERICA (US)

Current information (Y/N): Y

RCS size: SMALL

Orbital parameters

Period: 100.685 minutes

Inclination: 98.728 deg

SMA: 7169.191 km

Apoapsis: 797.421 km

Periapsis: 784.69 km

RAAN: 220.3888 deg

Eccentricy: 0.0008879

Argument of periapsis: 358.7066 deg

Mean anomaly: 1.4091 deg

Mean motion: 14.30202582 rev/day

Mean motion (dot): 0.0000474 rev/day2

B* drag term: 0.0018456 1/REarth

Two-line elements (TLE)

Creation date: May 11, 2025, 2:56 p.m.

Reference frame: TEME

Reference center: EARTH

Epoch: May 10, 2025, 12:51 a.m. UTC

TLE line 0: 0 NOAA 16 DEB

TLE line 1: 1 41408U 00055KM 25130.03541878 .00004740 00000-0 18456-2 0 9995

TLE line 2: 2 41408 98.7280 220.3888 0008879 358.7066 1.4091 14.30202582477539

Live tracking on map

Real-time ground track for satellite NOAA 16 DEB.

In-orbit conjunctions

A list of the most updated potential collisions computed for object NOAA 16 DEB.

Target Orbit TCA Probability of collision Miss distance Type
CZ-6A DEB LEO 2025-01-23 18:51:42 0.0001036385 207.0 (m) DEBRIS
FENGYUN 1C DEB SSO 2024-09-28 20:09:16 0.0004028076 129.0 (m) DEBRIS

Associated space launch

The NOAA K, L and M POES satellites begin the fifth generation of improved environmental monitoring in support of NOAA missions. The instrument payload has significant improvements and additions/deletions. The instrument changes have effected the spacecraft subsystems and data formats.

NOAA 16 DEB was lifted into orbit during the mission ‘Titan II SLV | NOAA 16’, on board a Titan II SLV space rocket.

The launch took place on Sept. 21, 2000, 10:22 a.m. from Space Launch Complex 4W.

For more information about the launch, click the button.

Launch to space Titan II SLV | NOAA 16
Titan II SLV | NOAA 16

Agency: N/A

Status: Launch Successful

Launch date: Sept. 21, 2000, 10:22 a.m. UTC

Rocket: Titan II SLV

Launch pad: Space Launch Complex 4W

Location: Vandenberg SFB, CA, USA

...

Latest news about this satellite

There are no fresh news available about this satellite. Check back as we update our databases every day.


Newsletter sign-up

Weekly statistics, charts and insights to help you stay on top of the space industry.